(37) Fides
ephemeris date magn radius delta ra dec elong phase
Today15 Sep 202513.43.079 AU3.669 AU14h25m-16°23'47.4°13.9°
Opposition3 Jul 202611.43.006 AU1.991 AU18h55m-27°28'175.3°1.6°
(37) Fides - 2025-09-15
astro.vanbuitenen.nl


 
-1 year
-1 month
-1 day
Now
+1 day
+1 month
+1 year

The interactive orbit chart above shows the body's path through the solar system and its position at the given date. Green and blue lines are shown perpendicular to the ecliptic plane: Green if the path is above the ecliptic plane, blue if it is below. (Left-click and drag to rotate the view; Right-click and drag to move the view; Use scroll wheel to zoom in our out.)

The orbital elements of Fides are:

            e (Eccentricity)                : 0.1748496
            a (Semimajor axis)              : 2.6426425
            i (Inclination)                 : 3.06800
            Ω (Longitude of ascending node) : 7.24178
            ω (Argument of perihelion)      : 62.26307
            M (Mean anomaly)                : 127.03433
            Epoch                           : 2025 May 05

            L (Longitude of perihelion)     : 69.47098
            B (Latitude of perihelion)      : 2.71519
            P (Orbital period in years)     : 4.30            
        

The light curve chart below shows the estimated development of the minor planet's magnitude.


The all-sky chart below shows the path of the minor planet over the same period as the light curve. The current position is marked yellow.





The following chart shows the path of the minor planet in the next few days. The field of view is optimized for (~10x50) binoculars and finderscopes. A more printer-friendly version of the same chart can be found below.




Ephemerides:
Date       Time       RA (2000)    DEC (2000)    delta   radius  elong  phase   PA    magn
2025-09-15 00:00 UT   14 25 42.3   -16 23 45     3.669    3.079   47.4   13.9   110   13.4 
2025-09-15 03:33 UT   14 25 53.6   -16 24 40     3.671    3.079   47.3   13.9   110   13.4 
2025-09-16 00:00 UT   14 26 58.7   -16 29 56     3.680    3.080   46.8   13.8   110   13.4 
2025-09-17 00:00 UT   14 28 15.4   -16 36 07     3.691    3.080   46.1   13.6   110   13.4 
2025-09-18 00:00 UT   14 29 32.5   -16 42 17     3.701    3.081   45.5   13.4   110   13.4 
2025-09-19 00:00 UT   14 30 50.0   -16 48 28     3.712    3.081   44.8   13.3   110   13.4 
2025-09-20 00:00 UT   14 32 07.8   -16 54 39     3.722    3.082   44.2   13.1   110   13.4 
2025-09-21 00:00 UT   14 33 26.1   -17 00 49     3.732    3.082   43.5   13.0   110   13.4 
2025-09-22 00:00 UT   14 34 44.7   -17 07 00     3.742    3.083   42.9   12.8   110   13.4 
2025-09-23 00:00 UT   14 36 03.7   -17 13 10     3.752    3.083   42.2   12.6   110   13.4 
2025-09-24 00:00 UT   14 37 23.1   -17 19 20     3.762    3.084   41.6   12.5   110   13.4 
2025-09-25 00:00 UT   14 38 42.8   -17 25 30     3.771    3.084   40.9   12.3   110   13.4 
2025-09-26 00:00 UT   14 40 02.8   -17 31 40     3.781    3.085   40.3   12.1   110   13.4 
2025-09-27 00:00 UT   14 41 23.3   -17 37 48     3.790    3.085   39.6   12.0   110   13.4 
2025-09-28 00:00 UT   14 42 44.0   -17 43 57     3.799    3.085   39.0   11.8   110   13.4 
2025-09-29 00:00 UT   14 44 05.1   -17 50 05     3.808    3.086   38.3   11.6   110   13.4 
2025-09-30 00:00 UT   14 45 26.5   -17 56 12     3.817    3.086   37.7   11.4   110   13.4 
2025-10-01 00:00 UT   14 46 48.3   -18 02 18     3.826    3.087   37.1   11.3   110   13.4 
2025-10-02 00:00 UT   14 48 10.4   -18 08 24     3.835    3.087   36.4   11.1   110   13.4 
2025-10-03 00:00 UT   14 49 32.8   -18 14 29     3.844    3.088   35.8   10.9   110   13.4 
2025-10-04 00:00 UT   14 50 55.5   -18 20 33     3.852    3.088   35.1   10.7   110   13.4 
2025-10-05 00:00 UT   14 52 18.5   -18 26 37     3.860    3.088   34.5   10.6   110   13.4 
2025-10-06 00:00 UT   14 53 41.9   -18 32 39     3.869    3.089   33.9   10.4   110   13.4 
2025-10-07 00:00 UT   14 55 05.5   -18 38 40     3.877    3.089   33.2   10.2   110   13.4 
2025-10-08 00:00 UT   14 56 29.5   -18 44 41     3.885    3.090   32.6   10.0   110   13.4 
2025-10-09 00:00 UT   14 57 53.7   -18 50 40     3.892    3.090   31.9    9.8   110   13.4 
2025-10-10 00:00 UT   14 59 18.3   -18 56 38     3.900    3.090   31.3    9.7   109   13.4 


    Terminology:
            
    delta:  distance between minor planet and earth in AU
    radius: distance between minor planet and sun in AU
    magn:   magnitude (brightness) estimate    
    ra:     right ascension in hours (24h = 360deg)
    dec:    declination in degrees
    elong:  elongation in degrees (angle sun-earth-minor planet)    
    phase:  phase angle in degrees (angle sun-minor planet-earth)        
    AU:     Astronomical Unit (mean distance between earth and sun: 149597870.7 km
    

Orbital elements provided by the MPC (Minor Planet Center).
Calculations by a modified version of AAPlus, a C# implementation of the AA+ project by PJ Naughter from the algorithms presented in the book "Astronomical Algorithms" by Jean Meeus.
NGC2000 dso catalog and star labels from VizieR as provided by the Strasbourg astronomical Data Center.
Tycho2 catalog from the ESO archive.